This is the latest recevied weather packets stored in our database for station/object EA3HRE-10. If no packets are shown the sender has not sent any weather packets the latest 10 day(s).
| Time | Temp. | Humidity | Pressure | Rain* | Wind** | Luminosity | Snow |
|---|---|---|---|---|---|---|---|
| 1777489110 | 25° C | 40% | 1013.1 hPa | - | - | - | - |
| 1777488210 | 25° C | 41% | 1013 hPa | - | - | - | - |
| 1777487309 | 25° C | 41% | 1012.7 hPa | - | - | - | - |
| 1777486422 | 25.56° C | 40% | 1012.6 hPa | - | - | - | - |
| 1777486409 | 25.56° C | 40% | 1012.6 hPa | - | - | - | - |
| 1777485509 | 25.56° C | 40% | 1012.7 hPa | - | - | - | - |
| 1777484621 | 25.56° C | 40% | 1012.4 hPa | - | - | - | - |
| 1777484609 | 25.56° C | 40% | 1012.4 hPa | - | - | - | - |
| 1777483709 | 25.56° C | 40% | 1012.4 hPa | - | - | - | - |
| 1777482809 | 26.11° C | 40% | 1012.2 hPa | - | - | - | - |
| 1777481909 | 26.67° C | 41% | 1012.1 hPa | - | - | - | - |
| 1777481009 | 26.11° C | 40% | 1012 hPa | - | - | - | - |
| 1777480108 | 26.67° C | 40% | 1012.1 hPa | - | - | - | - |
| 1777479208 | 26.11° C | 41% | 1012 hPa | - | - | - | - |
| 1777478321 | 26.67° C | 40% | 1012.1 hPa | - | - | - | - |
| 1777478308 | 26.67° C | 40% | 1012.1 hPa | - | - | - | - |
| 1777477420 | 26.11° C | 41% | 1012.4 hPa | - | - | - | - |
| 1777477408 | 26.11° C | 41% | 1012.4 hPa | - | - | - | - |
| 1777476508 | 26.11° C | 41% | 1012.3 hPa | - | - | - | - |
| 1777475608 | 26.11° C | 41% | 1012.3 hPa | - | - | - | - |
| 1777474708 | 26.11° C | 42% | 1012.5 hPa | - | - | - | - |
| 1777473808 | 26.11° C | 42% | 1012.5 hPa | - | - | - | - |
| 1777472908 | 26.11° C | 42% | 1012.4 hPa | - | - | - | - |
| 1777472008 | 26.11° C | 42% | 1012.7 hPa | - | - | - | - |
| 1777471107 | 25.56° C | 43% | 1012.8 hPa | - | - | - | - |
* Rain since midnight (hover to see other rain measurements)
** Current wind speed in m/s (hover to see current wind gust speed)